Orbital Elements at Epoch 2459200.5 (2020-Dec-17.0) TDB
Reference: JPL 37 (heliocentric ecliptic J2000)
Element | Value | Uncertainty (1-sigma) | Units |
e | .1127751992533742 | 3.6878e-08 | |
a | 2.396747532355362 | 7.3117e-09 | au |
q | 2.126453851833953 | 8.709e-08 | au |
i | 2.466460726616007 | 4.1163e-06 | deg |
node | 350.6501421309836 | 6.819e-05 | deg |
peri | 338.826054946156 | 6.9827e-05 | deg |
M | 159.5982269840344 | 1.5439e-05 | deg |
tp | 2458599.661958504213 (2019-Apr-26.16195850) | 5.7507e-05 | TDB |
period | 1355.288833879849 3.71 | 6.2018e-06 1.698e-08 | d yr |
n | .2656260355731044 | 1.2155e-09 | deg/d |
Q | 2.667041212876771 | 8.1363e-09 | au |
|
| | Orbit Determination Parameters
Additional Information
|